Location: Newark
(34.0635°N, 86.7609°W)
Time: 02:55:35
(UTC+00:00)

N. Korean satellite - Pass Details

Date: 19 December 2019
Orbit: 454 x 507 km, 97.2° (Epoch: 23 January)

Event Time Altitude Azimuth Distance (km) Brightness Sun altitude
Rises 12:11:38 0° 356° (N) 2,494 9.9 -7.5°
Reaches altitude 10° 12:13:57 10° 342° (NNW) 1,608 8.8 -7.1°
Maximum altitude 12:16:44 23° 288° (WNW) 1,008 7.6 -6.6°
Drops below altitude 10° 12:19:30 10° 233° (SW) 1,588 8.9 -6.0°
Sets 12:21:46 0° 219° (SW) 2,454 10.0 -5.6°
